Regional Weather Roundup
Issued by NWS Glasgow, MT

Home | Current Version | Previous Version | Text Only | Print | Product List | Glossary On
Versions: 1 2 3 4 5 6 7 8 9 10 11 12 13 14 15 16 17 18 19 20 21 22 23 24 25 26 27 28 29 30 31 32 33 34 35 36 37 38 39 40 41 42 43 44 45 46 47 48 49 50
000
ASUS45 KGGW 060115
RWRGGW
HOURLY REGIONAL WEATHER ROUNDUP FOR NORTHEAST MONTANA
NATIONAL WEATHER SERVICE GLASGOW MONTANA
700 PM MDT SUN JUL 05 2015

NOTE: "FAIR" INDICATES FEW OR NO CLOUDS BELOW 12,000 FEET WITH NO
SIGNIFICANT WEATHER AND/OR OBSTRUCTIONS TO VISISBILITY.

NORTHEAST MONTANA


CITY           SKY/WX    TMP DP  RH WIND       PRES   REMARKS
GLASGOW        CLOUDY    67  47  48 W10       30.09R
PLENTYWOOD       N/A     68  44  42 N12G20      N/A
WOLF POINT     CLOUDY    67  52  58 W6        30.07F
JORDAN           N/A     59  55  87 W8        30.12F
WINNETT          N/A     57  48  72 NE12G20     N/A
SIDNEY         CLOUDY    72  46  40 NW10      30.05R
GLENDIVE       CLOUDY    68  48  49 N15       30.07S
MALTA            N/A     64  55  72 W8          N/A
SCOBEY           N/A     67  44  43 NW9       30.06R

FORT PECK REPORTS


CITY           SKY/WX    TMP DP  RH WIND       PRES   REMARKS
FORT PECK        N/A     66  48  52 W13G23      N/A
THE PINES        N/A     64  54  69 W7          N/A

SOUTHEAST MONTANA


CITY           SKY/WX    TMP DP  RH WIND       PRES   REMARKS
BILLINGS       TSTM      60  52  74 NE9       30.15R
MILES CITY     CLOUDY    69  48  47 N22       30.08R
BAKER          CLOUDY    66  55  67 NW3       30.07S HAZE
LIVINGSTON     CLOUDY    60  47  61 E18       30.14R

CENTRAL MONTANA


CITY           SKY/WX    TMP DP  RH WIND       PRES   REMARKS
HAVRE          CLOUDY    61  52  72 MISG      30.17R
LEWISTOWN      LGT RAIN  51  48  89 N10       30.20R
GREAT FALLS    CLOUDY    52  50  93 N9        30.22R
CUT BANK       CLOUDY    55  46  71 N7        30.24R
HELENA         RAIN      53  50  89 NW8       30.20R FOG
BUTTE          CLOUDY    64  48  56 NE6       30.14R
BOZEMAN        LGT RAIN  58  51  78 SE5       30.13S

WESTERN MONTANA


CITY           SKY/WX    TMP DP  RH WIND       PRES   REMARKS
MISSOULA       MOSUNNY   73  47  39 N16G26    30.04R
KALISPELL      NOT AVBL

NORTH DAKOTA


CITY           SKY/WX    TMP DP  RH WIND       PRES   REMARKS
WILLISTON      CLOUDY    73  47  39 N12       30.03R
DICKINSON      CLOUDY    66  58  75 NW5       30.02R HAZE
MINOT          CLOUDY    70  56  61 NW12      29.95R HAZE
BISMARCK       CLOUDY    72  60  66 W6        29.95R HAZE

SOUTHERN SASKATCHEWAN


CITY           SKY/WX    TMP DP  RH WIND       PRES   REMARKS
REGINA         PTSUNNY   64  48  55 N12       30.05R
ESTEVAN        PTSUNNY   68  50  52 NW14      30.02R
SWIFT CURRENT  CLOUDY    61  46  59 NW10      30.11R




USA.gov is the U.S. government's official web portal to all federal, state and local government web resources and services.